Location: Newark
(27.9675°N, 86.8869°E)
Time: 13:29:35
(UTC+00:00)

Altair - Pass Details

Date: 26 October 2019
Orbit: 1502 x 1682 km, 47.2° (Epoch: 20 November)

Event Time Altitude Azimuth Distance (km) Brightness Sun altitude
Rises 01:50:47 0° 215° (SW) 4,624 9.9 18.2°
Reaches altitude 10° 01:53:48 10° 212° (SSW) 3,651 9.5 18.8°
Maximum altitude 02:02:50 63° 133° (SE) 1,677 8.6 20.6°
Drops below altitude 10° 02:12:09 10° 55° (NE) 3,767 10.0 22.4°
Sets 02:15:19 0° 52° (NE) 4,778 10.4 23.0°
